Regional Weather Roundup
Issued by NWS Midland/Odessa, TX

Home | Current Version | Previous Version | Text Only | Print | Product List | Glossary On
Versions: 1 2 3 4 5 6 7 8 9 10 11 12 13 14 15 16 17 18 19 20 21 22 23 24 25 26 27 28 29 30 31 32 33 34 35 36 37 38 39 40 41 42 43 44 45 46 47 48 49 50
000
ASUS44 KMAF 201810
RWRMAF
MIDLAND AREA WEATHER ROUNDUP
NATIONAL WEATHER SERVICE MIDLAND TX
1200 PM CST TUE FEB 20 2018

...IN SOUTHWEST TEXAS AND SOUTHEAST NEW MEXICO...

CITY           SKY/WX    TMP DP  RH WIND       PRES   REMARKS
ALPINE         FAIR      67  26  21 SW16G28   30.03S
ANDREWS        FAIR      69  31  24 W14G29    29.92S
ARTESIA        FAIR      64  28  25 SW26G33   29.90F
BIG SPRING     FAIR      72  36  26 W17G26    29.93S
CARLSBAD       FAIR      65  35  33 W21G26    29.91S
DRYDEN           N/A     79  41  25 SW13G23   29.87F
FORT STOCKTON  FAIR      73  33  23 SW14G22   29.92
GUAD PASS      FAIR      56  31  38 SW32G46   29.95R
HOBBS          SUNNY     64  30  27 SW17G23   29.93S
LAMESA         FAIR      68  32  26 W17       29.91F
MARFA          FAIR      64  28  25 S21G28    29.99F
MIDLAND AIRPK    N/A     72  33  23 W10G23    29.91F
MIDLAND INTL   FAIR      72  33  24 W17G25    29.91F
ODESSA         FAIR      71  32  23 W20       29.92F
PECOS          FAIR      71  32  24 W14G28    29.91F
PRESIDIO       FAIR      74  30  20 SW10G23   29.96S
SEMINOLE       FAIR      67  30  24 SW13G20   29.93S
SNYDER         FAIR      72  35  26 W15G24    29.90S
WINK           FAIR      70  29  21 W22G30    29.91F
$$
...OTHER STATIONS IN TEXAS...

CITY           SKY/WX    TMP DP  RH WIND       PRES   REMARKS
ABILENE        RAIN      67  63  87 SW13G29   29.86S FOG
AMARILLO       FAIR      29  18  63 N16       30.01S WCI  17
AUSTIN         CLOUDY    72  70  93 S18G28    29.92F
BROWNSVILLE    FAIR      82  72  71 S26G37    29.94S
CORPUS CHRISTI LGT RAIN  75  71  87 S23       29.93F
DALLAS FTW     LGT RAIN  70  66  87 S16       29.91F
DEL RIO        CLOUDY    75  66  73 SE13      29.86F
EL PASO        FAIR      61  31  32 SW21      29.94F
HOUSTON INT    CLOUDY    79  69  71 S15G30    30.01F
LUBBOCK        FAIR      68  26  20 W23G29    29.90R
SAN ANGELO     CLOUDY    78  56  46 SW17G25   29.87F
SAN ANTONIO    LGT RAIN  71  67  87 S16       29.92R
WACO           LGT RAIN  70  64  81 S20       29.93S
WICHITA FALLS  CLOUDY    24  20  84 N20       30.11S WCI  10
$$
...OTHER LOCATIONS IN NEW MEXICO...

CITY           SKY/WX    TMP DP  RH WIND       PRES   REMARKS
ALAMOGORDO     CLOUDY    54  30  40 W18G30    29.99F
ALBUQUERQUE    PTSUNNY   34  15  46 W8        30.00S WCI  27
CANNON AFB     FAIR      47  27  46 NE7       29.97R
CLOVIS         NOT AVBL
HOLLOMAN AFB   PTSUNNY   57  33  40 SW16G22   30.00F
ROSWELL        FAIR      64  26  23 W13       29.88F
RUIDOSO        NOT AVBL
SANTA FE       CLOUDY    33  16  49 SW16G23   29.93S WCI  23
TRUTH OR CONSE CLOUDY    43  27  53 N8        29.97  WCI  38
TUCUMCARI      FAIR      37  18  46 NE9       29.96S WCI  30
$$




USA.gov is the U.S. government's official web portal to all federal, state and local government web resources and services.